Location: Newark
(37.0833°N, 15.2833°E)
Time: 14:53:41
(UTC+00:00)

X-37B - Visible Passes

Search period start: 18 September 2020 00:00
Search period end: 28 September 2020 00:00
Orbit: 386 x 387 km, 45.0° (Epoch: 15 September)

Date Brightness Start Highest point End Pass type
(mag) Time Alt. Az. Time Alt. Az. Time Alt. Az.
18 Sep 2.8 03:25:04 14° NW 03:26:33 19° N 03:28:54 10° NE visible
19 Sep 3.5 02:29:10 15° NNE 02:29:10 15° NNE 02:30:10 10° NE visible
19 Sep 2.6 04:02:23 10° NW 04:05:02 24° NNE 04:07:42 10° ENE visible
20 Sep 2.7 03:05:36 19° N 03:06:16 20° N 03:08:42 10° ENE visible
21 Sep 2.1 03:42:05 12° NW 03:44:40 32° NNE 03:47:35 10° E visible
22 Sep 2.8 02:46:23 23° NNE 02:46:23 23° NNE 02:48:35 10° ENE visible
22 Sep 0.6 04:19:39 10° WNW 04:22:50 89° SW 04:26:01 10° ESE visible
23 Sep 1.3 03:23:04 31° NW 03:24:15 50° NNE 03:27:21 10° ESE visible
24 Sep 3.7 02:27:36 16° ENE 02:27:36 16° ENE 02:28:28 10° E visible
24 Sep 1.0 03:59:54 15° WNW 04:02:15 43° SW 04:05:17 10° SE visible
25 Sep 1.5 03:04:35 46° ESE 03:04:35 46° ESE 03:06:55 10° ESE visible
26 Sep 2.0 03:41:44 22° SW 03:41:44 22° SW 03:44:07 10° SSE visible
